"Pseudo-MPEC" for P11ZSjI

Created 2024 Oct 7 20:22:14 UT using Find_Orb

Click here for an explanation of pseudo-MPECs

 
 Astrometry: 
     P11ZSjI* C2024 10 01.59908407 27 12.956+05 31 11.27   ~A1Hb 21.23wXNEOCPF51
     P11ZSjI  C2024 10 01.60692407 27 13.943+05 31 00.05   ~A1Hb 21.57wXNEOCPF51
     P11ZSjI  C2024 10 01.61475807 27 14.927+05 30 48.54   ~A1Hb 21.74wXNEOCPF51
     P11ZSjI  C2024 10 01.62256607 27 15.907+05 30 37.39   ~A1Hb 21.54wXNEOCPF51

Station data:
(F51) Pan-STARRS 1, Haleakala  (N20.707234 W156.255910)  US/Hawaii.
   Observers J. Bulger, T. Lowe, A. Schultz, M. Willman. Measurers K.
   Chambers, S. Chastel, T. de Boer, L. Denneau, J. Fairlamb, H. Flewelling,
   M. Huber, C.-C. Lin, E. Magnier, Y. Ramanjooloo, R. Wainscoat, R. Weryk.
   1.8-m Ritchey-Chrétien + CCD.

Orbital elements:  P11ZSjI
   Perihelion 2024 Nov 27.71797 +/- 79.6 TT = 17:13:52 (JD 2460642.21797)
Epoch 2024 Oct  2.0 TT = JDT 2460585.5   Earth MOID: 0.1637   Ve: 0.0598
M 249.07935489 +/- 90               Me: 0.0198                   AutoNEOCP
n   1.95565265 +/- 1.14             Peri.  138.36076 +/- 90
a   0.63329817 +/- 0.246            Node    16.30686 +/- 110
e   0.9138680 +/- 0.257             Incl.  160.09479 +/- 60
P   0.504/184.078d         H 19.62  G  0.15   U 12.8  SR
q 0.05454722 +/- 0.487    Q 1.21204911 +/- 14.4           (J2000 ecliptic)
From 4 observations 2024 Oct. 1 (33.8 min); mean residual 0".05
Residuals in arcseconds: 
241001 F51  .01-  .02-    241001 F51  .00   .10-    
241001 F51  .01+  .08+    241001 F51  .00   .04+    

Ephemerides (geocentric):
Date (UTC) HH   RA             Dec           delta  r     elong  mag " sig PA
---- --------  ------------   ------------  ------ ------ -----  --- --------
2024 10 07 20  07 43 29.738   +02 22 48.48  .58952 1.0492  78.0 21.0  47d  85
2024 10 07 21  07 43 37.753   +02 21 13.64  .58852 1.0488  78.0 21.0  47d  85
2024 10 07 22  07 43 45.793   +02 19 38.47  .58752 1.0485  78.0 21.0  47d  85
2024 10 07 23  07 43 53.858   +02 18 02.99  .58653 1.0481  78.0 21.0  47d  85
2024 10 08 00  07 44 01.949   +02 16 27.17  .58553 1.0478  78.0 21.0  47d  85
2024 10 08 01  07 44 10.065   +02 14 51.04  .58453 1.0474  78.0 21.0  47d  85
2024 10 08 02  07 44 18.207   +02 13 14.57  .58353 1.0471  78.0 21.0  47d  85
2024 10 08 03  07 44 26.375   +02 11 37.77  .58254 1.0467  78.0 21.0  47d  85
2024 10 08 04  07 44 34.570   +02 10 00.65  .58154 1.0464  78.0 21.0  48d  85
2024 10 08 05  07 44 42.790   +02 08 23.18  .58055 1.0460  78.0 21.0  48d  85
2024 10 08 06  07 44 51.037   +02 06 45.39  .57955 1.0457  78.0 21.0  48d  85
2024 10 08 07  07 44 59.311   +02 05 07.26  .57855 1.0453  78.0 21.0  48d  85
2024 10 08 08  07 45 07.611   +02 03 28.79  .57756 1.0450  78.0 21.0  48d  85
2024 10 08 09  07 45 15.938   +02 01 49.98  .57656 1.0446  78.0 21.0  48d  85
2024 10 08 10  07 45 24.293   +02 00 10.82  .57556 1.0443  78.0 21.0  49d  85
2024 10 08 11  07 45 32.674   +01 58 31.33  .57457 1.0439  78.0 21.0  49d  85
2024 10 08 12  07 45 41.083   +01 56 51.49  .57357 1.0436  78.0 20.9  49d  85
2024 10 08 13  07 45 49.519   +01 55 11.30  .57258 1.0432  78.0 20.9  49d  85
2024 10 08 14  07 45 57.982   +01 53 30.76  .57158 1.0429  78.0 20.9  49d  85
2024 10 08 15  07 46 06.474   +01 51 49.87  .57058 1.0425  78.0 20.9  49d  85
2024 10 08 16  07 46 14.993   +01 50 08.63  .56959 1.0422  78.0 20.9  49d  85
2024 10 08 17  07 46 23.541   +01 48 27.04  .56859 1.0418  78.0 20.9  49d  85
2024 10 08 18  07 46 32.117   +01 46 45.09  .56760 1.0414  78.0 20.9  50d  85
2024 10 08 19  07 46 40.721   +01 45 02.78  .56660 1.0411  78.0 20.9  50d  85
2024 10 08 20  07 46 49.354   +01 43 20.12  .56561 1.0407  78.0 20.9  50d  85
2024 10 08 21  07 46 58.015   +01 41 37.09  .56461 1.0404  78.0 20.9  50d  85
2024 10 08 22  07 47 06.706   +01 39 53.70  .56362 1.0400  78.0 20.9  50d  85
2024 10 08 23  07 47 15.425   +01 38 09.94  .56262 1.0397  78.0 20.9  50d  85
2024 10 09 00  07 47 24.174   +01 36 25.81  .56163 1.0393  78.0 20.9  50d  85
2024 10 09 01  07 47 32.952   +01 34 41.32  .56063 1.0390  78.0 20.9  51d  85
2024 10 09 02  07 47 41.759   +01 32 56.46  .55964 1.0386  78.0 20.9  51d  85
2024 10 09 03  07 47 50.597   +01 31 11.22  .55864 1.0382  78.0 20.9  51d  85
2024 10 09 04  07 47 59.464   +01 29 25.61  .55765 1.0379  78.0 20.9  51d  85
2024 10 09 05  07 48 08.362   +01 27 39.62  .55665 1.0375  78.0 20.9  51d  85
2024 10 09 06  07 48 17.289   +01 25 53.25  .55566 1.0372  78.0 20.9  51d  85
2024 10 09 07  07 48 26.247   +01 24 06.51  .55467 1.0368  78.0 20.9  51d  85
2024 10 09 08  07 48 35.236   +01 22 19.37  .55367 1.0364  78.0 20.9  51d  85
2024 10 09 09  07 48 44.255   +01 20 31.86  .55268 1.0361  78.0 20.9  51d  85
2024 10 09 10  07 48 53.305   +01 18 43.96  .55168 1.0357  78.0 20.9  52d  85
2024 10 09 11  07 49 02.387   +01 16 55.67  .55069 1.0354  78.0 20.9  52d  85
2024 10 09 12  07 49 11.500   +01 15 06.99  .54970 1.0350  78.0 20.9  52d  85
2024 10 09 13  07 49 20.644   +01 13 17.91  .54870 1.0346  78.0 20.9  52d  85
2024 10 09 14  07 49 29.820   +01 11 28.44  .54771 1.0343  78.0 20.9  52d  85
2024 10 09 15  07 49 39.028   +01 09 38.58  .54672 1.0339  78.0 20.9  52d  85
2024 10 09 16  07 49 48.268   +01 07 48.31  .54572 1.0335  78.0 20.9  52d  85
2024 10 09 17  07 49 57.540   +01 05 57.65  .54473 1.0332  78.0 20.9  52d  85
2024 10 09 18  07 50 06.844   +01 04 06.58  .54374 1.0328  78.0 20.9  53d  85
2024 10 09 19  07 50 16.181   +01 02 15.10  .54275 1.0324  78.0 20.9  53d  85